User: anonymous   Login
Location: ?p Thanh B�nh
(16.5833°N, 107.5333°E)
Time: 16:11:54
(UTC+00:00)
Language:

Ariane H10-3 - Orbit

View from above orbital plane
View from above orbital plane
View from above satellite
View from above satellite

Ground track
Ground track

The orbit data is extracted from the following two-line orbital elements,

1 23866U 96030C   21018.46025839  .00000458  00000-0  46023-3 0  9997
2 23866   4.0893 224.0204 6912537 185.2428 159.1195  2.72463235226575
Epoch (UTC): 18 January 2021 11:02:46
Eccentricity: 0.6912537
inclination: 4.0893°
perigee height: 307 km
apogee height: 30243 km
right ascension of ascending node: 224.0204°
argument of perigee: 185.2428°
revolutions per day: 2.72463235
mean anomaly at epoch: 159.1195°
orbit number at epoch: 22657

The dashed part of the orbit path shows where the satellite is in the earth's shadow,  

DLR